Showing default

S-NET B, 43187

Orbit data source: Space-Track

S-NET B, 43187 is a payload satellite owned by TUB (DE) in SSO that was launched on Thu, 01 Feb 2018 UTC via a SOYUZ-2-1A launch vehicle from the Vostochny Cosmodrome (VOSTO). Payloads include a variety of satellites, spacecraft, and rockets equipped with specific instruments for various scientific and technological missions. These include communications satellites like Starlink; space stations such as the ISS; scientific satellites like the Hubble; Earth observation satellites from companies like Planet Labs, Umbra, and HawkEye 360; GPS; miniature CubeSats for education and research; and military/defense satellites.

Loading next visibility...
S-NET B details
Identifier
43187, 2018-014H
Orbit
SSO
Last TLE update8 hours ago
Origin
Flag of DETUB (DE / GER)
ManufacturerTUB
MissionOperational Commercial Com/Tech
Bus & MotorTUBIX10, Unknown motor
Mass8 kg wet, 8 kg dry
Launch date (UTC)
2018-02-01 (7 years ago)
Launch vehicle
SOYUZ-2-1A
Launch site
Vostochny Cosmodrome (VOSTO)
Object type
Payload
Rocket body
Debris
Shape & HBRBox, 0.24 m
Radar Cross Section0.086 m², Medium (>0.1 m² and < 1m²)

Expand to show TLE details & history

TLE from 8 hours ago
0 S-NET B
1 43187U 18014H   24361.28166539  .00011181  00000-0  71477-3 0  9994
2 43187  97.5766 260.0329 0012178  68.9149 291.3380 15.08727409377425
Epoch: 2024-12-26T06:45Z
Definitive object data (Epoch: 2024-12-26T06:45:35.889Z)
Latitude-0.00008°
Longitude63.37007°
Altitude540.1 km
Speed7.594 km/s
True Right ascension17h 20m 07s
True Declination0° 00' 00"
Sunlit
Object was in daylight at TLE epoch
Visualization TLE readout
Latitude-82.25151°
Longitude167.21711°
Altitude576.325 km
Speed7.567 km/s
Apparent Right ascension01h 27m 00s
Apparent Declination-62° 07' 47"
Sunlit
Object is in daylight
Visualization observer readout
Local Sidereal Time13:40:31
Azimuth175.839° S
Elevation-67.692°
Doppler factor1
Orbital elements
Apogee altitude545.497 km
Perigee altitude528.654 km
Semi-major axis6,915.213 km
Eccentricity0.0012178
Inclination97.5766°
RAAN260.0329°
Arg. of periapsis68.9149°
True anomaly291.20794°
Mean anomaly291.338°
Eccentric anomaly291.27298°
Mean motion3.77429 °/min
BSTAR0.00071477
Orbital period95.38 mins
Loading maneuver chart data...
Loading historical data...
Loading historical data...
Loading historical data...
Loading historical data...
Loading historical data...
Loading historical data...
Loading historical data...

S-NET B Visibility forecast

Observer location: undefined°, undefined

Span
Click to sort rows by Start time (UTC) header in descending order
Start Az.
Max El. time (UTC)
Max El. Az.
Max El.
End time (UTC)
End Az.
5 mins2024-12-26 18:02:42.424Z211.937° SW2024-12-26 18:04:42.424Z269.744° W29.996°2024-12-26 18:07:42.424Z327.527° NNW
4 mins2024-12-27 05:38:42.424Z66.168° ENE2024-12-27 05:39:42.424Z88.916° E22.009°2024-12-27 05:42:42.424Z146.779° SSE
4 mins2024-12-27 07:12:42.424Z325.749° NNW2024-12-27 07:14:42.424Z283.143° WNW20.474°2024-12-27 07:16:42.424Z246.676° WSW
|